Regional Weather Roundup
Issued by NWS Jackson, KY

Home | Current Version | Previous Version | Text Only | Print | Product List | Glossary Off
Versions: 1 2 3 4 5 6 7 8 9 10 11 12 13 14 15 16 17 18 19 20 21 22 23 24 25 26 27 28 29 30 31 32 33 34 35 36 37 38 39 40 41 42 43 44 45 46 47 48 49 50

064
ASUS43 KJKL 291410
RWRJKL

EAST KENTUCKY HOURLY WEATHER ROUNDUP
NATIONAL WEATHER SERVICE JACKSON KY
1000 AM EDT SUN MAY 29 2016

NOTE: "FAIR" INDICATES FEW OR NO CLOUDS BELOW 12,000 FEET WITH
NO SIGNIFICANT WEATHER AND/OR OBSTRUCTIONS TO VISIBILITY.

* THESE REPORTS ARE NOT UNDER NWS QUALITY CONTROL AND MAY NOT
  REPORT WEATHER SUCH AS PRECIPITATION AND FOG.

KYZ079-080-083-085-087-088-110-112-115-119-120-291500
...EASTERN KENTUCKY...

CITY           SKY/WX    TMP DP  RH WIND       PRES   REMARKS
JACKSON        CLOUDY    74  66  76 CALM      30.16S
LONDON         CLOUDY    72  64  76 CALM      30.17R
SOMERSET*      PTSUNNY   72  63  73 CALM      30.18R
MONTICELLO*    CLOUDY    72  65  78 NW9       30.19R
WILLIAMSBURG*  CLOUDY    70  64  83 CALM      30.17S
MIDDLESBORO*   PTSUNNY   71  65  80 CALM      30.17S
HARLAN APT*      N/A     68  63  83 CALM      30.18S
HAZARD APT*    SUNNY     73  72  94 W3        30.17S
BLACK MTN*       N/A     68  63  83 CALM        N/A
PIKE CO APT*     N/A     70  67  90 CALM      30.16S
BIG SANDY APT* CLOUDY    73  69  87 CALM      30.16S
MOREHEAD APT*  CLOUDY    72  64  78 NW5       30.17S
ASHLAND*       CLOUDY    75  70  83 W3        30.11F
$$

KYZ035-036-041-042-044-050-067-078-099-291500
...CENTRAL KENTUCKY...

CITY           SKY/WX    TMP DP  RH WIND       PRES   REMARKS
MT STERLING*   CLOUDY    73  64  73 CALM      30.18R
FLEMING/MASON* CLOUDY   N/A N/A N/A S5        30.16F
DANVILLE*      CLOUDY    73  63  68 SW6       30.18S
RICHMOND*      CLOUDY    72  64  78 CALM      30.16R
LEXINGTON      LGT RAIN  74  65  73 SW6       30.16R
FRANKFORT      PTSUNNY   75  65  70 SW5       30.14R
LOUISVILLE     MOSUNNY   79  66  64 SW5       30.13R
LEBANON*         N/A     75  64  69 S5        30.16R
GLASGOW*       MOSUNNY   75  64  68 SW5       30.16S
BOWLING GREEN  MOSUNNY   75  67  76 SW5       30.15S
$$

KYZ091>093-OHZ055-061-077-WVZ005-015-034-035-042-291500
...SOUTHERN OHIO/WEST VIRGINIA...

CITY           SKY/WX    TMP DP  RH WIND       PRES   REMARKS
COVINGTON      PTSUNNY   73  66  78 SW5       30.12S
COLUMBUS       CLOUDY    74  65  73 S5        30.12S
DAYTON         CLOUDY    74  65  73 SW8       30.12R
WILMINGTON     CLOUDY    73  64  73 S7        30.13S
HUNTINGTON       N/A     76  68  76 VRB3      30.12F
CHARLESTON     CLOUDY    68  64  87 CALM      30.14F
PINEVILLE*       N/A     67  59  75 MISG      30.23F
BECKLEY        LGT RAIN  66  59  78 SE5       30.21F
BLUEFIELD      CLOUDY    63  58  83 CALM      30.24F
LOGAN CO APT*  PTSUNNY   70  63  78 CALM      30.17S
$$

VAZ002-007-008-TNZ017-027-036-066-071-291500
...SOUTHWEST VIRGINIA/EAST TENNESSEE...

CITY           SKY/WX    TMP DP  RH WIND       PRES   REMARKS
WISE*            N/A     72  52  49 CALM      30.23S
JONESVILLE*      N/A     72  63  73 NE5       30.18F
ABINGDON*        N/A     69  61  76 E5        30.22S
BRISTOL        CLOUDY    70  60  70 CALM      30.19S
SEVIERVILLE*   SUNNY     72  63  73 CALM      30.14F
KNOXVILLE      CLOUDY    77  62  59 SW3       30.14F
OAK RIDGE      PTSUNNY   77  63  61 CALM      30.16S
CROSSVILLE     PTSUNNY   72  63  73 CALM      30.21R
NASHVILLE      SUNNY     78  65  63 CALM      30.16S
$$

...KEY TO REMARKS...
VSB - VISIBILITY IN MILES
WCI - WIND CHILL INDEX
HX  - HEAT INDEX

$$




USA.gov is the U.S. government's official web portal to all federal, state and local government web resources and services.